User: anonymous
Location: Unspecified
(0.0000°N, 0.0000°E)
Time: 07:51:24
(UTC+02:00)
Language:

CZ-4B DEB - Orbit

View from above orbital plane
View from above orbital plane
View from above satellite
View from above satellite

Ground track
Ground track

The orbit data is extracted from the following two-line orbital elements,

1 33411U 08053D   14109.15016885  .00028101  00000-0  17535-2 0  1589
2 33411 097.5182 129.6780 0013173 104.2869 255.9823 15.09393462299381
Epoch (UTC): 19 April 2014 03:36:14
Eccentricity: 0.0013173
inclination: 97.5182°
perigee height: 529 km
apogee height: 547 km
right ascension of ascending node: 129.6780°
argument of perigee: 104.2869°
revolutions per day: 15.09393462
mean anomaly at epoch: 255.9823°
orbit number at epoch: 29938

The dashed part of the orbit path shows where the satellite is in the earth's shadow,  

DLR